Погода в Мардане

Пакистан     34°11′27″N   72°03′00″E
темп.,
°C
ветер,
м/с
пор.,
м/с
влажн.,
%
обл.,
%
осадки,
мм/ч
давл.,
гПа
погр.,
м
28 сентября, вт
вт2823:00+27св22560 0.0 100631
02:00+27св22590 0.0 100715
05:00+26всв11610 0.0 100712
08:00+28всв11560 0.0 1009184
11:00+32ююз11440 0.0 1008800
14:00+35ю11380 0.0 10051575
17:00+34всв11450 0.0 100437
20:00+30св22500 0.0 100613
29 сентября, ср
ср2923:00+28св22560 0.0 100625
02:00+27св22580 0.0 100617
05:00+26св22600 0.0 100713
08:00+28св11540 0.0 1009174
11:00+32ю11430 0.0 1009769
14:00+35ююв01380 0.0 10061503
17:00+34в11430 0.0 100427
20:00+30св22460 0.0 100614
30 сентября, чт
чт3023:00+28св22520 0.0 100633
02:00+27св22550 0.0 100715
05:00+26св22560 0.0 100713
08:00+28св11510 0.0 1009172
11:00+33ююв11410 0.0 1009776
14:00+35юв11370 0.0 10061492
17:00+34всв22440 0.0 100458
20:00+30св22490 0.0 100624
1 октября, пт
пт123:00+29св22540 0.0 100627
02:00+28св22560 0.0 100618
05:00+27св11580 0.1 100712
08:00+27ссв226157 0.9 1009182
11:00+31вюв22500 1.7 1008788
14:00+34юв11430 0.0 10051213
17:00+33всв11470 0.0 100477
20:00+29ссв22540 0.1 100523
2 октября, сб
сб223:00+26ссв22700 1.7 100620
02:00+25ссз11773 2.8 100615
05:00+23св12850 6.1 100727
08:00+25ссв22740 1.5 1008121
11:00+29ююв21600 2.8 1008616
14:00+32юв12510 0.0 10051009
17:00+32всв12570 0.0 100462
20:00+28св22630 0.1 100519